CAPE
0 168 843 1300 1516 1752 1470 840 851 652 440 151 317 151 56 57 119 121 35 70 91 75 161 28 33 26 6 125 194 173 180 165
0 113 848 1270 1569 1699 1396 810 710 492 293 170 178 210 81 21 59 46 91 45 27 96 48 43 15 17 20 43 172 175 150 150
0 161 892 1267 1508 1586 1278 926 512 392 264 210 179 19 50 107 75 49 85 185 90 3 40 12 34 15 23 97 169 154 148 134
0 128 827 1164 1443 1516 1187 931 849 518 441 184 317 38 44 52 41 22 53 221 30 27 32 50 21 12 7 75 150 166 110 124
0 5 533 994 1265 1394 1165 1009 576 645 441 207 158 28 4 43 20 2 32 20 35 26 29 35 14 24 33 54 90 163 147 112
1 6 162 693 1139 1305 1210 981 514 519 290 133 116 31 38 54 17 0 10 7 8 14 5 47 11 12 90 161 118 138 117 109
0 0 209 600 1045 1214 975 719 341 392 305 150 62 12 43 111 26 30 34 18 11 17 39 38 22 9 51 76 26 38 80 81
1 139 337 670 1039 654 395 560 194 149 179 81 70 66 66 31 64 15 53 6 24 14 23 10 33 43 38 48 22 20 32 64
0 282 397 612 861 399 178 313 132 118 80 51 69 39 11 16 49 91 78 32 43 49 23 10 8 11 9 7 0 1 2 25
64 137 535 632 708 466 161 217 148 135 38 17 88 56 41 28 26 7 12 7 8 21 1 7 17 4 2 0 6 0 1 0
92 269 449 594 249 198 201 186 157 126 57 10 7 30 35 18 0 1 29 31 30 34 0 6 2 20 1 2 8 0 0 0
136 206 229 180 172 77 153 136 164 138 92 4 7 5 22 15 2 0 8 3 0 3 0 12 8 3 3 7 2 2 0 9
30 7 18 72 87 78 250 145 174 142 62 7 8 11 26 34 24 4 5 17 5 0 0 0 5 7 0 10 1 8 11 0
37 16 8 1 21 130 224 164 133 114 37 2 9 7 5 6 23 30 33 20 7 0 0 0 3 9 12 7 18 34 35 18
22 32 9 20 66 97 190 157 118 124 57 57 17 1 4 5 13 22 25 27 28 3 0 0 0 6 11 39 53 64 51 44
186 54 26 69 171 158 216 146 120 123 112 137 130 73 47 4 11 8 8 17 26 33 35 28 33 1 2 3 19 38 40 39
72 157 105 153 110 107 174 160 154 108 79 114 117 128 116 138 52 74 14 8 14 15 17 14 10 0 0 0 0 0 2 7
176 198 90 146 117 130 229 166 144 54 34 12 0 1 22 69 139 217 184 95 32 30 7 7 9 5 3 2 5 7 29 74
69 111 107 121 204 222 188 127 54 24 30 26 0 0 7 10 4 2 17 31 25 48 33 33 38 64 42 43 17 40 33 19
CIN
0 -65 -84 -98 -117 -122 -164 -261 -179 -134 -120 -153 -68 -70 -101 -59 -14 -2 -23 -0 -0 -1 0 -8 -3 0 0 -2 0 0 0 0
0 -81 -128 -139 -128 -108 -176 -251 -196 -164 -161 -141 -94 -45 -79 -123 -37 -18 -6 0 -1 -0 0 -7 0 -1 -2 -1 0 0 0 0
0 -91 -144 -169 -145 -137 -190 -211 -221 -183 -162 -140 -111 -109 -112 -57 -25 -27 -4 0 -0 -6 -2 -0 0 0 0 0 0 0 -0 0
0 -104 -146 -185 -159 -178 -195 -190 -146 -159 -120 -163 -85 -52 -69 -28 -39 -18 -6 0 -6 0 0 0 0 0 0 -0 0 0 0 0
0 -107 -141 -190 -184 -178 -165 -146 -174 -134 -124 -160 -123 -118 -18 -73 -26 0 -5 -28 -10 0 -3 0 -0 0 0 -0 0 0 0 0
-42 -100 -109 -164 -189 -193 -161 -140 -181 -150 -161 -176 -137 -172 -125 -103 -32 0 -18 -6 -1 -2 0 0 0 0 0 0 0 0 0 0
0 0 -165 -175 -207 -190 -198 -191 -220 -172 -161 -172 -175 -76 -118 -77 -29 0 -25 -3 -3 -2 0 0 -1 -9 -1 -2 -5 -7 0 0
-29 -160 -202 -219 -234 -316 -343 -227 -270 -253 -188 -206 -166 -126 -136 -158 -115 0 -13 0 0 -2 -1 -1 -3 -0 -2 -4 -29 -22 -8 0
-6 -170 -226 -250 -222 -349 -395 -277 -150 -72 -215 -188 -166 -170 0 -166 -143 -74 -45 0 0 0 0 0 0 -2 -1 -7 -9 -9 -1 -19
-96 -221 -210 -251 -245 -323 -371 -234 -181 -62 -45 -57 -161 -177 0 0 0 -143 -91 0 0 -0 -2 -0 0 0 -0 0 0 0 -0 0
-268 -249 -246 -232 -360 -357 -317 -261 -148 -44 -54 0 0 0 0 -0 0 0 0 0 0 0 0 0 0 0 0 0 0 0 0 0
-241 -236 -232 -320 -332 -386 -294 -223 -129 -78 -66 0 0 0 0 0 0 0 -1 -0 0 0 0 -0 0 -1 -0 0 0 0 0 0
-257 -203 -297 -298 -288 -298 -171 -161 -93 -94 -98 0 0 0 0 0 0 0 0 0 0 0 0 -0 0 -2 0 -5 -2 -2 -0 0
-194 -225 -305 -63 -319 -209 -127 -120 -107 -125 -106 0 0 0 0 0 0 0 0 0 0 0 0 0 0 -3 -3 0 -0 0 0 0
-135 -154 -194 -209 -194 -175 -129 -98 -111 -117 -125 -114 -82 -9 -0 -42 0 0 0 0 0 0 0 0 0 -12 -5 0 0 0 -0 -0
-46 -115 -127 -122 -97 -90 -68 -81 -101 -91 -55 -47 -45 -60 -78 -55 -15 0 0 0 0 -0 0 0 0 0 0 0 -0 0 0 0
-41 -34 -46 -50 -63 -63 -34 -39 -49 -46 -35 -22 -22 -24 -29 -20 -36 -23 -53 -1 0 0 0 0 0 0 0 0 0 -0 0 0
-0 -0 -20 -8 -14 -9 -1 -10 -11 -19 -2 -9 0 -11 -7 -31 -9 -1 -2 -13 -33 -39 -47 -49 -5 -9 -14 -11 -1 -3 -6 0
-9 -0 -0 -4 0 0 -5 -5 -8 -3 -2 -1 0 0 -4 -10 -6 -22 -15 -29 -27 -8 -12 -11 -11 -1 -8 -8 -2 -3 0 -1
Wind_Speed
nan 33 31 32 28 31 37 35 31 31 26 22 22 19 nan nan 24 24 nan nan nan nan 24 nan nan nan nan 39 34 31 30 26
nan 30 33 31 26 32 35 32 30 32 22 21 19 18 nan nan nan nan nan nan nan nan nan nan nan nan nan nan 34 35 28 27
nan 26 28 25 23 31 32 32 31 27 20 18 16 nan nan 15 nan nan nan 11 nan nan nan nan nan nan nan nan 30 32 27 26
nan 24 23 21 20 31 29 29 31 22 18 16 16 nan nan nan nan nan nan 5 nan nan nan nan nan nan nan nan 27 15 20 15
nan nan 19 16 21 25 27 26 28 20 19 16 16 nan nan nan nan nan nan nan nan nan nan nan nan nan nan nan nan 16 14 10
nan nan 15 17 22 25 27 26 23 22 19 15 13 nan nan nan nan nan nan nan nan nan nan nan nan nan nan 20 15 13 17 16
nan nan 22 20 23 25 23 26 24 22 19 16 nan nan nan 9 nan nan nan nan nan nan nan nan nan nan nan nan nan nan nan nan
nan 21 22 21 21 25 21 24 25 22 18 nan nan nan nan nan nan nan nan nan nan nan nan nan nan nan nan nan nan nan nan nan
nan 28 25 22 21 26 19 24 25 22 nan nan nan nan nan nan nan nan nan nan nan nan nan nan nan nan nan nan nan nan nan nan
nan 26 25 25 24 29 20 24 25 22 nan nan nan nan nan nan nan nan nan nan nan nan nan nan nan nan nan nan nan nan nan nan
nan 33 35 30 33 30 23 27 22 17 nan nan nan nan nan nan nan nan nan nan nan nan nan nan nan nan nan nan nan nan nan nan
45 43 37 45 34 nan 28 29 26 18 nan nan nan nan nan nan nan nan nan nan nan nan nan nan nan nan nan nan nan nan nan nan
nan nan nan nan nan nan 32 30 24 22 nan nan nan nan nan nan nan nan nan nan nan nan nan nan nan nan nan nan nan nan nan nan
nan nan nan nan nan 41 43 34 28 25 nan nan nan nan nan nan nan nan nan nan nan nan nan nan nan nan nan nan nan nan nan nan
nan nan nan nan nan nan 51 49 38 33 nan nan nan nan nan nan nan nan nan nan nan nan nan nan nan nan nan nan nan nan nan nan
56 nan nan nan 57 56 57 50 42 43 44 40 37 nan nan nan nan nan nan nan nan nan nan nan nan nan nan nan nan nan nan nan
nan 50 49 58 62 60 56 51 51 51 nan 45 39 40 39 37 nan nan nan nan nan nan nan nan nan nan nan nan nan nan nan nan
48 50 nan 48 40 61 60 56 56 nan nan nan nan nan nan nan 39 33 34 nan nan nan nan nan nan nan nan nan nan nan nan nan
nan 53 49 54 51 49 56 58 nan nan nan nan nan nan nan nan nan nan nan nan nan nan nan nan nan nan nan nan nan nan nan nan
Wind_Direction
nan 246 260 271 285 291 294 291 302 289 285 268 259 270 nan nan 282 280 nan nan nan nan 233 nan nan nan nan 218 233 250 253 252
nan 243 260 271 284 296 299 296 309 287 277 262 261 274 nan nan nan nan nan nan nan nan nan nan nan nan nan nan 234 249 252 264
nan 252 263 274 283 291 297 305 310 291 268 261 266 nan nan 298 nan nan nan 273 nan nan nan nan nan nan nan nan 239 247 264 272
nan 260 258 265 287 290 300 305 304 282 274 272 282 nan nan nan nan nan nan 282 nan nan nan nan nan nan nan nan 242 272 264 261
nan nan 253 270 270 283 294 303 294 279 277 285 307 nan nan nan nan nan nan nan nan nan nan nan nan nan nan nan nan 236 254 262
nan nan 249 241 263 278 285 297 290 275 279 288 298 nan nan nan nan nan nan nan nan nan nan nan nan nan nan 243 245 240 250 262
nan nan 224 250 256 268 284 297 284 272 279 294 nan nan nan 344 nan nan nan nan nan nan nan nan nan nan nan nan nan nan nan nan
nan 225 232 257 261 268 280 292 283 275 279 nan nan nan nan nan nan nan nan nan nan nan nan nan nan nan nan nan nan nan nan nan
nan 221 231 249 247 261 273 286 283 276 nan nan nan nan nan nan nan nan nan nan nan nan nan nan nan nan nan nan nan nan nan nan
nan 219 232 235 245 259 259 278 283 284 nan nan nan nan nan nan nan nan nan nan nan nan nan nan nan nan nan nan nan nan nan nan
nan 221 230 227 234 247 255 269 275 277 nan nan nan nan nan nan nan nan nan nan nan nan nan nan nan nan nan nan nan nan nan nan
210 227 242 222 226 nan 252 265 269 264 nan nan nan nan nan nan nan nan nan nan nan nan nan nan nan nan nan nan nan nan nan nan
nan nan nan nan nan nan 246 256 260 265 nan nan nan nan nan nan nan nan nan nan nan nan nan nan nan nan nan nan nan nan nan nan
nan nan nan nan nan 222 235 242 245 243 nan nan nan nan nan nan nan nan nan nan nan nan nan nan nan nan nan nan nan nan nan nan
nan nan nan nan nan nan 228 230 230 231 nan nan nan nan nan nan nan nan nan nan nan nan nan nan nan nan nan nan nan nan nan nan
221 nan nan nan 209 215 224 229 228 232 239 241 243 nan nan nan nan nan nan nan nan nan nan nan nan nan nan nan nan nan nan nan
nan 219 230 214 215 217 226 230 233 238 nan 238 243 241 240 236 nan nan nan nan nan nan nan nan nan nan nan nan nan nan nan nan
217 217 nan 229 232 217 225 233 238 nan nan nan nan nan nan nan 237 238 242 nan nan nan nan nan nan nan nan nan nan nan nan nan
nan 216 228 227 227 223 227 232 nan nan nan nan nan nan nan nan nan nan nan nan nan nan nan nan nan nan nan nan nan nan nan nan